DW9572 Weather Reports


Display with metric or nautical units.
time (UTC)temp
F
wind
direction
speed
MPH
gust
MPH
rain 1hr
in
rain 24hr
in
rain mn
in
humidity
%
barometer
mb
20260901070100 72 276 8.0 12.0 0.00 0.00 0.00 36 1005.2
20260901064550 72 294 6.0 9.0 0.00 0.00 0.00 36 1005.4
20260901063032 72 266 7.0 10.0 0.00 0.00 0.00 35 1005.4
20260901061531 74 186 2.0 6.0 0.00 0.00 0.00 33 1005.4
20260901060013 74 302 5.0 9.0 0.00 0.00 0.00 33 1005.5
20260901054515 74 291 5.0 9.0 0.00 0.00 0.00 33 1005.6
20260901053128 75 296 6.0 11.0 0.00 0.00 0.00 32 1005.6
20260901051556 77 338 7.0 15.0 0.00 0.00 0.00 29 1005.7
20260901050054 79 345 11.0 17.0 0.00 0.00 0.00 28 1005.6
20260901044554 79 335 15.0 19.0 0.00 0.00 0.00 28 1005.4
20260901043040 79 339 16.0 21.0 0.00 0.00 0.00 28 1005.6
20260901041519 78 347 16.0 24.0 0.00 0.00 0.00 29 1005.8
20260901040017 78 356 13.0 16.0 0.00 0.00 0.00 29 1005.6
20260901034606 78 340 14.0 19.0 0.00 0.00 0.00 29 1005.6
20260901033058 78 346 9.0 16.0 0.00 0.00 0.00 29 1005.8
20260901031547 77 336 11.0 14.0 0.00 0.00 0.00 29 1005.6
20260901030041 79 343 13.0 17.0 0.00 0.00 0.00 28 1005.7
20260901024525 79 345 12.0 15.0 0.00 0.00 0.00 28 1005.7
20260901023021 78 340 11.0 15.0 0.00 0.00 0.00 29 1005.6
20260901021502 80 350 10.0 13.0 0.00 0.00 0.00 27 1005.8
20260901020114 82 354 10.0 14.0 0.00 0.00 0.00 25 1005.9
20260901014544 84 356 10.0 14.0 0.00 0.00 0.00 24 1006.0
20260901013044 85 27 9.0 14.0 0.00 0.00 0.00 23 1006.1
20260901011533 85 18 6.0 13.0 0.00 0.00 0.00 23 1006.2
20260901010021 85 30 10.0 15.0 0.00 0.00 0.00 23 1006.4
20260901004501 86 43 11.0 15.0 0.00 0.00 0.00 23 1006.6
20260901003123 86 8 9.0 13.0 0.00 0.00 0.00 22 1006.7
20260901001555 86 21 9.0 14.0 0.00 0.00 0.00 23 1007.0
20260901000044 86 82 6.0 14.0 0.00 0.00 0.00 22 1007.3
20260831234517 85 8 7.0 14.0 0.00 0.00 0.00 23 1007.4
20260831233032 85 60 12.0 17.0 0.00 0.00 0.00 23 1007.7
20260831231602 85 69 7.0 14.0 0.00 0.00 0.00 23 1008.0
20260831230053 85 12 10.0 15.0 0.00 0.00 0.00 24 1008.2
20260831224534 84 55 7.0 15.0 0.00 0.00 0.00 24 1008.5
20260831223034 83 58 9.0 16.0 0.00 0.00 0.00 25 1008.6
20260831221512 83 33 8.0 17.0 0.00 0.00 0.00 25 1008.9
20260831220009 83 37 12.0 15.0 0.00 0.00 0.00 24 1009.2
20260831214550 83 92 11.0 15.0 0.00 0.00 0.00 24 1009.6
20260831213045 81 90 7.0 16.0 0.00 0.00 0.00 25 1009.9
20260831211526 82 29 7.0 17.0 0.00 0.00 0.00 26 1010.0
20260831210023 80 87 14.0 17.0 0.00 0.00 0.00 26 1010.2
20260831204505 80 21 8.0 13.0 0.00 0.00 0.00 27 1010.5
20260831203059 79 87 14.0 18.0 0.00 0.00 0.00 28 1010.8
20260831201547 79 96 13.0 20.0 0.00 0.00 0.00 28 1011.0
20260831200042 79 101 14.0 20.0 0.00 0.00 0.00 29 1011.3
20260831194532 78 104 7.0 14.0 0.00 0.00 0.00 30 1011.5
20260831193012 77 95 8.0 17.0 0.00 0.00 0.00 31 1011.7
20260831191553 77 1 8.0 16.0 0.00 0.00 0.00 31 1012.1
20260831190058 76 51 8.0 17.0 0.00 0.00 0.00 32 1012.4
20260831184542 76 90 7.0 17.0 0.00 0.00 0.00 33 1012.6
20260831183033 75 89 11.0 15.0 0.00 0.00 0.00 32 1012.9
20260831181515 74 52 11.0 16.0 0.00 0.00 0.00 33 1013.0
20260831180005 73 45 11.0 16.0 0.00 0.00 0.00 36 1013.2
20260831174602 73 86 11.0 17.0 0.00 0.00 0.00 37 1013.2
20260831173059 73 53 11.0 14.0 0.00 0.00 0.00 40 1013.4
20260831171545 71 39 9.0 15.0 0.00 0.00 0.00 41 1013.7
20260831170042 70 69 12.0 14.0 0.00 0.00 0.00 44 1013.8
20260831164539 68 32 8.0 11.0 0.00 0.00 0.00 46 1014.0
20260831163037 65 85 6.0 9.0 0.00 0.00 0.00 50 1014.1
20260831161529 64 91 5.0 8.0 0.00 0.00 0.00 51 1014.3
20260831160030 63 98 3.0 5.0 0.00 0.00 0.00 53 1014.5
20260831154513 61 89 3.0 6.0 0.00 0.00 0.00 55 1014.6
20260831153003 60 93 3.0 6.0 0.00 0.00 0.00 55 1014.7
20260831151556 61 112 0.0 3.0 0.00 0.00 0.00 58 1014.7
20260831150048 59 190 1.0 2.0 0.00 0.00 0.00 61 1014.6
20260831144532 59 222 0.0 1.0 0.00 0.00 0.00 61 1014.4
20260831143033 59 233 2.0 3.0 0.00 0.00 0.00 62 1014.4
20260831141502 58 345 0.0 1.0 0.00 0.00 0.00 60 1014.1
20260831140100 57 345 0.0 3.0 0.00 0.00 0.00 61 1014.2
20260831134540 55 354 2.0 4.0 0.00 0.00 0.00 65 1014.2
20260831133035 55 227 2.0 3.0 0.00 0.00 0.00 61 1014.2
20260831131517 54 15 0.0 1.0 0.00 0.00 0.00 63 1014.2
20260831130020 54 14 2.0 4.0 0.00 0.00 0.00 64 1014.1
20260831124558 56 336 0.0 9.0 0.00 0.00 0.00 57 1014.0
20260831123057 57 353 8.0 9.0 0.00 0.00 0.00 59 1013.9
20260831121539 59 64 1.0 9.0 0.00 0.00 0.00 56 1014.0
20260831120039 58 4 8.0 12.0 0.00 0.00 0.00 59 1013.7
20260831114518 56 354 9.0 10.0 0.00 0.00 0.00 64 1013.6
20260831113015 57 345 3.0 9.0 0.00 0.00 0.00 60 1013.8
20260831111611 56 18 3.0 4.0 0.00 0.00 0.00 59 1013.8
20260831110134 56 16 3.0 4.0 0.00 0.00 0.00 56 1013.8
20260831104546 56 152 1.0 2.0 0.00 0.00 0.00 60 1013.8
20260831103049 54 150 1.0 2.0 0.00 0.00 0.00 62 1013.8
20260831101546 54 150 0.0 0.0 0.00 0.00 0.00 62 1013.9
20260831100046 54 151 0.0 0.0 0.00 0.00 0.00 61 1013.7
20260831094542 54 151 0.0 1.0 0.00 0.00 0.00 62 1014.0
20260831093041 55 151 0.0 1.0 0.00 0.00 0.00 62 1014.2
20260831091549 56 150 0.0 2.0 0.00 0.00 0.00 56 1014.2
20260831090041 56 151 0.0 2.0 0.00 0.00 0.00 58 1014.2
20260831084538 57 151 1.0 2.0 0.00 0.00 0.00 55 1014.3
20260831083027 56 283 1.0 2.0 0.00 0.00 0.00 57 1014.2
20260831081529 56 85 0.0 1.0 0.00 0.00 0.00 57 1014.1
20260831080028 57 85 1.0 1.0 0.00 0.00 0.00 59 1014.2
20260831074537 58 85 0.0 1.0 0.00 0.00 0.00 58 1014.2
20260831073057 59 85 0.0 0.0 0.00 0.00 0.00 56 1014.2
20260831071526 60 79 0.0 0.0 0.00 0.00 0.00 48 1014.2